KE5BCK Weather Reports


time (UTC)temp
C
wind
direction
speed
KPH
gust
KPH
rain 1hr
cm
rain 24hr
cm
rain mn
cm
humidity
%
barometer
mb
20260504220133 27 123 4.8 16.1 0.00 0.00 0.00 55 1009.8
20260504214606 27 254 4.8 25.7 0.00 0.00 0.00 55 1009.7
20260504213056 27 148 6.4 32.2 0.00 0.00 0.00 54 1010.0
20260504211553 27 213 3.2 24.1 0.00 0.00 0.00 57 1010.3
20260504210151 27 169 8.0 22.5 0.00 0.00 0.00 56 1010.6
20260504204557 27 128 3.2 14.5 0.00 0.00 0.00 56 1011.0
20260504203057 27 154 4.8 22.5 0.00 0.00 0.00 57 1011.3
20260504201549 27 179 3.2 25.7 0.00 0.00 0.00 57 1011.6
20260504200149 27 138 3.2 17.7 0.00 0.00 0.00 55 1011.7
20260504194602 26 218 8.0 27.4 0.00 0.00 0.00 55 1012.0
20260504193056 26 135 6.4 30.6 0.00 0.00 0.00 55 1012.2
20260504191608 26 189 6.4 16.1 0.00 0.00 0.00 55 1012.3
20260504190147 26 145 4.8 25.7 0.00 0.00 0.00 58 1012.6
20260504184549 25 230 8.0 27.4 0.00 0.00 0.00 60 1012.7
20260504183047 25 162 6.4 17.7 0.00 0.00 0.00 59 1012.9
20260504181551 25 121 1.6 20.9 0.00 0.00 0.00 60 1013.3
20260504180142 25 135 6.4 16.1 0.00 0.00 0.00 62 1013.2
20260504174550 25 157 8.0 24.1 0.00 0.00 0.00 61 1013.4
20260504173045 23 223 6.4 25.7 0.00 0.00 0.00 65 1014.1
20260504171549 23 216 6.4 27.4 0.00 0.00 0.00 66 1014.4
20260504170140 22 196 3.2 19.3 0.00 0.00 0.00 67 1014.4
20260504160137 22 211 4.8 12.9 0.00 0.00 0.00 66 1014.9
20260504150137 21 178 4.8 19.3 0.00 0.00 0.00 67 1015.1
20260504140133 18 115 4.8 19.3 0.00 0.00 0.00 74 1015.0
20260504130151 16 190 4.8 11.3 0.00 0.00 0.00 79 1015.0
20260504120147 14 218 0.0 8.0 0.00 0.00 0.00 81 1014.2
20260504110145 14 181 1.6 9.7 0.00 0.00 0.00 80 1014.8
20260504100143 15 105 1.6 12.9 0.00 0.00 0.00 78 1014.7
20260504081538 16 183 3.2 12.9 0.00 0.00 0.00 74 1015.2
20260504080136 16 221 1.6 12.9 0.00 0.00 0.00 73 1015.4
20260504070134 17 212 3.2 12.9 0.00 0.00 0.00 70 1016.4
20260504060151 17 132 1.6 9.7 0.00 0.00 0.00 67 1017.0
20260504050147 17 221 1.6 9.7 0.00 0.00 0.00 65 1017.2
20260504044546 17 180 0.0 14.5 0.00 0.00 0.00 64 1017.3
20260504043051 17 180 3.2 14.5 0.00 0.00 0.00 64 1017.4
20260504041545 17 177 0.0 6.4 0.00 0.00 0.00 62 1017.6
20260504040145 16 111 0.0 8.0 0.00 0.00 0.00 62 1017.5
20260504034543 16 209 0.0 4.8 0.00 0.00 0.00 62 1017.5
20260504033043 16 211 0.0 0.0 0.00 0.00 0.00 62 1017.4
20260504031544 16 213 0.0 0.0 0.00 0.00 0.00 62 1017.3
20260504030141 17 213 0.0 3.2 0.00 0.00 0.00 57 1017.3
20260504024540 17 213 0.0 1.6 0.00 0.00 0.00 53 1017.3
20260504023041 17 212 0.0 1.6 0.00 0.00 0.00 53 1017.1
20260504021541 18 213 0.0 3.2 0.00 0.00 0.00 53 1017.3
20260504020141 18 169 0.0 3.2 0.00 0.00 0.00 53 1017.2
20260504014541 18 169 0.0 3.2 0.00 0.00 0.00 52 1016.7
20260504013050 19 169 0.0 3.2 0.00 0.00 0.00 49 1016.7
20260504011538 20 169 0.0 3.2 0.00 0.00 0.00 48 1016.8
20260504010136 21 178 0.0 4.8 0.00 0.00 0.00 46 1016.7
20260504004609 21 196 0.0 4.8 0.00 0.00 0.00 44 1016.6